Home > Weather > Stavern > Past weeks

Flag for Norway Past Weather in Stavern, Norway — Yesterday and Last 2 Weeks

Now
61 °F

Sunny.


Feels Like: 61 °F
Forecast: 51 / 61 °F
Wind: 12 mph from Southwest

Location: Torp

Current Time: Aug 27, 2016 at 10:23:58 AM

Latest Report: Aug 27, 2016 at 9:50 AM


Visibility: 10 mi

Pressure: 30.01 "Hg

Humidity: 68%

Dew Point: 50 °F

Location of StavernLocation

Past Weather in Stavern — Graph

°F

Stavern Temperature Yesterday

Maximum temperature yesterday: 70 °F (at 6:20 PM)
Minimum temperature yesterday: 59 °F (at 11:50 PM)
Average temperature yesterday: 64 °F

High & Low Weather Summary for the Past Weeks

 TemperatureHumidityPressure
High73 °F (Aug 17, 5:50 PM)100% (Aug 12, 8:20 AM)30.27 "Hg (Aug 12, 8:20 AM)
Low50 °F (Aug 12, 8:20 AM)40% (Aug 17, 1:20 PM)29.65 "Hg (Aug 12, 8:50 PM)
Average61 °F88%29.98 "Hg
* Reported Aug 12 8:20 AM — Aug 27 8:50 AM, Stavern, Weather by CustomWeather, © 2016

Note: Actual official high and low records may vary slightly from our data, if they occured in-between our weather recording intervals... More about our weather records

Advertising

Stavern Weather History for the Previous 24 Hours

Scroll right to see more
 ConditionsComfort  
Time TempWeatherWind HumidityBarometerVisibility
8:50 AM
Sat, Aug 27
59 °FSunny.12 mph77%29.98 "Hg10 mi
8:20 AM57 °FSunny.12 mph82%29.98 "Hg10 mi
7:50 AM55 °FSunny.10 mph94%29.98 "Hg10 mi
7:20 AM54 °FSunny.12 mph100%29.95 "Hg10 mi
6:50 AM54 °FClear.10 mph100%29.95 "Hg10 mi
6:20 AM54 °FPassing clouds.7 mph94%29.92 "HgN/A
5:50 AM55 °FClear.12 mph88%29.92 "Hg10 mi
5:20 AM55 °FCool.14 mph94%29.89 "HgN/A
4:50 AM55 °FCool.15 mph94%29.89 "HgN/A
4:20 AM55 °FCool.14 mph94%29.89 "HgN/A
3:50 AM55 °FCool.14 mph94%29.89 "HgN/A
3:20 AM57 °FCool.15 mph88%29.89 "HgN/A
2:50 AM57 °FCool.15 mph88%29.89 "HgN/A
2:20 AM57 °FCool.10 mph94%29.89 "HgN/A
1:50 AM57 °FCool.12 mph100%29.86 "HgN/A
1:20 AM57 °FCool.15 mph100%29.86 "HgN/A
12:50 AM59 °FCool.16 mph94%29.86 "HgN/A
12:20 AM59 °FCool.16 mph94%29.86 "HgN/A
11:50 PM
Fri, Aug 26
59 °FCool.17 mph88%29.86 "HgN/A
11:20 PM61 °FCool.15 mph83%29.83 "HgN/A
10:50 PM61 °FClear.12 mph88%29.83 "Hg10 mi
10:20 PM61 °FClear.12 mph77%29.83 "HgN/A
9:50 PM63 °FPassing clouds.12 mph68%29.83 "HgN/A
9:20 PM63 °FPassing clouds.12 mph73%29.80 "HgN/A
8:50 PM64 °FPassing clouds.9 mph73%29.80 "HgN/A
8:20 PM66 °FPassing clouds.9 mph64%29.77 "HgN/A
7:50 PM66 °FPassing clouds.12 mph64%29.77 "HgN/A
7:20 PM68 °FPassing clouds.13 mph60%29.77 "HgN/A
6:50 PM70 °FPassing clouds.14 mph60%29.74 "HgN/A
6:20 PM70 °FPassing clouds.10 mph78%29.74 "HgN/A
5:50 PM68 °FPassing clouds.17 mph94%29.74 "HgN/A
5:20 PM66 °FScattered clouds.16 mph100%29.71 "Hg4 mi
4:50 PM64 °FFog.18 mph100%29.71 "Hg2 mi
4:20 PM64 °FFog.20 mph100%29.71 "Hg2 mi
3:50 PM66 °FFog.16 mph100%29.71 "Hg3 mi
3:20 PM66 °FPartly sunny.16 mph100%29.71 "Hg4 mi
2:50 PM66 °FPartly sunny.18 mph100%29.71 "HgN/A
2:20 PM66 °FPartly sunny.16 mph100%29.71 "Hg6 mi
1:50 PM66 °FPartly sunny.20 mph100%29.74 "Hg6 mi
1:20 PM66 °FPartly sunny.14 mph100%29.74 "Hg4 mi
12:50 PM64 °FPartly sunny.13 mph100%29.77 "Hg5 mi
12:20 PM64 °FPartly sunny.12 mph100%29.77 "HgN/A
11:50 AM66 °FPartly sunny.12 mph100%29.77 "HgN/A
11:20 AM66 °FPartly sunny.9 mph100%29.80 "HgN/A
10:50 AM66 °FPartly sunny.8 mph100%29.80 "HgN/A
10:20 AM66 °FBroken clouds.7 mph100%29.83 "HgN/A
Weather by CustomWeather, © 2016

See weather overviewHow to use our weather pages